• Em Portugal
  • Lista de países
  • Para 7 dias
  • Temperatura da água
  • Mapas de satélite
  • Mapa do tempo
  • Widgets de tempo
  • user-avatar
    Iniciar Sessão

    Previsão horária em Adelaide

    Hoje, 24 Setembro, Segunda-feira

    Tempo Temperatura Precipitação Vento Pressão Humidade
    00:00 +7°C° 0 mm 4 m/s 770 mmHg 82%
    01:00 +7°C° 0 mm 4 m/s 770 mmHg 82%
    02:00 +6°C° 0 mm 4 m/s 770 mmHg 81%
    03:00 +6°C° 0 mm 4 m/s 769 mmHg 80%
    04:00 +5°C° 0 mm 4 m/s 769 mmHg 81%
    05:00 +5°C° 0 mm 4 m/s 770 mmHg 81%
    06:00 +4°C° 0 mm 4 m/s 770 mmHg 82%
    07:00 +7°C° 0 mm 4 m/s 770 mmHg 72%
    08:00 +10°C° 0 mm 4 m/s 770 mmHg 62%
    09:00 +12°C° 0 mm 4 m/s 770 mmHg 52%
    10:00 +14°C° 0 mm 4 m/s 770 mmHg 48%
    11:00 +16°C° 0 mm 3 m/s 769 mmHg 43%
    12:00 +17°C° 0 mm 3 m/s 769 mmHg 38%
    13:00 +18°C° 0 mm 4 m/s 768 mmHg 39%
    14:00 +18°C° 0 mm 4 m/s 768 mmHg 41%
    15:00 +17°C° 0 mm 5 m/s 767 mmHg 43%
    16:00 +15°C° 0 mm 5 m/s 767 mmHg 51%
    17:00 +13°C° 0 mm 5 m/s 767 mmHg 60%
    18:00 +10°C° 0 mm 5 m/s 767 mmHg 69%
    19:00 +10°C° 0 mm 5 m/s 768 mmHg 73%
    20:00 +9°C° 0 mm 5 m/s 768 mmHg 77%
    21:00 +8°C° 0 mm 5 m/s 768 mmHg 82%
    22:00 +8°C° 0 mm 4 m/s 768 mmHg 83%
    23:00 +8°C° 0 mm 4 m/s 768 mmHg 84%

    Amanhã, 25 Setembro, Terça-feira

    Tempo Temperatura Precipitação Vento Pressão Humidade
    00:00 +7°C° 0 mm 4 m/s 768 mmHg 85%
    01:00 +7°C° 0 mm 4 m/s 768 mmHg 85%
    02:00 +7°C° 0 mm 3 m/s 767 mmHg 86%
    03:00 +7°C° 0 mm 3 m/s 767 mmHg 87%
    04:00 +5°C° 0 mm 3 m/s 767 mmHg 86%
    05:00 +5°C° 0 mm 3 m/s 767 mmHg 86%
    06:00 +5°C° 0 mm 3 m/s 767 mmHg 85%
    07:00 +8°C° 0 mm 3 m/s 767 mmHg 75%
    08:00 +11°C° 0 mm 3 m/s 767 mmHg 66%
    09:00 +13°C° 0 mm 3 m/s 767 mmHg 56%
    10:00 +16°C° 0 mm 2 m/s 767 mmHg 50%
    11:00 +18°C° 0 mm 2 m/s 766 mmHg 43%
    12:00 +20°C° 0 mm 2 m/s 766 mmHg 37%
    13:00 +20°C° 0 mm 2 m/s 765 mmHg 39%
    14:00 +20°C° 0 mm 3 m/s 764 mmHg 40%
    15:00 +20°C° 0 mm 3 m/s 764 mmHg 41%
    16:00 +18°C° 0 mm 4 m/s 764 mmHg 50%
    17:00 +15°C° 0 mm 4 m/s 764 mmHg 58%
    18:00 +13°C° 0 mm 4 m/s 764 mmHg 67%
    19:00 +12°C° 0 mm 4 m/s 764 mmHg 70%
    20:00 +11°C° 0 mm 4 m/s 764 mmHg 74%
    21:00 +10°C° 0 mm 4 m/s 764 mmHg 77%
    22:00 +10°C° 0 mm 3 m/s 764 mmHg 78%
    23:00 +10°C° 0 mm 3 m/s 764 mmHg 78%

    Depois de amanhã, 26 Setembro, Quarta-feira

    Tempo Temperatura Precipitação Vento Pressão Humidade
    00:00 +10°C° 0 mm 3 m/s 763 mmHg 78%
    01:00 +10°C° 0 mm 3 m/s 763 mmHg 76%
    02:00 +10°C° 0 mm 3 m/s 762 mmHg 74%
    03:00 +9°C° 0 mm 3 m/s 762 mmHg 73%
    04:00 +10°C° 0 mm 3 m/s 762 mmHg 72%
    05:00 +10°C° 0 mm 4 m/s 761 mmHg 70%
    06:00 +10°C° 0 mm 4 m/s 761 mmHg 69%
    07:00 +12°C° 0 mm 4 m/s 761 mmHg 61%
    08:00 +15°C° 0 mm 4 m/s 761 mmHg 52%
    09:00 +19°C° 0 mm 4 m/s 761 mmHg 43%
    10:00 +21°C° 0 mm 4 m/s 760 mmHg 39%
    11:00 +22°C° 0 mm 4 m/s 759 mmHg 34%
    12:00 +25°C° 0 mm 4 m/s 759 mmHg 30%
    13:00 +25°C° 0 mm 4 m/s 758 mmHg 31%
    14:00 +25°C° 0 mm 3 m/s 757 mmHg 33%
    15:00 +25°C° 0 mm 3 m/s 757 mmHg 34%
    16:00 +22°C° 0 mm 3 m/s 757 mmHg 36%
    17:00 +20°C° 0 mm 3 m/s 756 mmHg 39%
    18:00 +19°C° 0 mm 2 m/s 756 mmHg 41%
    19:00 +18°C° 0 mm 3 m/s 757 mmHg 42%
    20:00 +17°C° 0 mm 3 m/s 757 mmHg 43%
    21:00 +17°C° 0 mm 3 m/s 757 mmHg 44%
    22:00 +16°C° 0 mm 3 m/s 757 mmHg 55%
    23:00 +14°C° 0 mm 3 m/s 757 mmHg 66%

    27 Setembro, Quinta-feira

    Tempo Temperatura Precipitação Vento Pressão Humidade
    00:00 +13°C° 0 mm 4 m/s 757 mmHg 78%
    01:00 +12°C° 0 mm 4 m/s 757 mmHg 83%
    02:00 +12°C° 0 mm 3 m/s 757 mmHg 87%
    03:00 +11°C° 0 mm 3 m/s 757 mmHg 92%
    04:00 +11°C° 0 mm 3 m/s 757 mmHg 92%
    05:00 +11°C° 0 mm 3 m/s 758 mmHg 91%
    06:00 +11°C° 0 mm 3 m/s 758 mmHg 91%
    07:00 +12°C° 0 mm 4 m/s 758 mmHg 83%
    08:00 +13°C° 0 mm 4 m/s 759 mmHg 76%
    09:00 +15°C° 0 mm 4 m/s 759 mmHg 69%
    10:00 +17°C° 0 mm 4 m/s 759 mmHg 65%
    11:00 +17°C° 0 mm 4 m/s 759 mmHg 62%
    12:00 +17°C° 0 mm 5 m/s 758 mmHg 58%
    13:00 +17°C° 0 mm 5 m/s 758 mmHg 59%
    14:00 +17°C° 0 mm 5 m/s 758 mmHg 61%
    15:00 +16°C° 0 mm 5 m/s 758 mmHg 62%
    16:00 +15°C° 0 mm 4 m/s 758 mmHg 67%
    17:00 +14°C° 0 mm 4 m/s 759 mmHg 72%
    18:00 +12°C° 0 mm 4 m/s 759 mmHg 77%
    19:00 +12°C° 0 mm 4 m/s 759 mmHg 78%
    20:00 +11°C° 0 mm 4 m/s 760 mmHg 78%
    21:00 +11°C° 0 mm 3 m/s 760 mmHg 79%
    22:00 +11°C° 0 mm 3 m/s 760 mmHg 81%
    23:00 +10°C° 0 mm 3 m/s 759 mmHg 83%

    28 Setembro, Sexta-feira

    Tempo Temperatura Precipitação Vento Pressão Humidade
    00:00 +10°C° 0 mm 3 m/s 759 mmHg 86%
    01:00 +10°C° 0 mm 3 m/s 759 mmHg 87%
    02:00 +10°C° 0 mm 3 m/s 758 mmHg 88%
    03:00 +10°C° 0 mm 3 m/s 758 mmHg 90%
    04:00 +10°C° 0.1 mm 3 m/s 759 mmHg 90%
    05:00 +10°C° 0.1 mm 3 m/s 759 mmHg 90%
    06:00 +10°C° 0.1 mm 3 m/s 760 mmHg 90%
    07:00 +11°C° 0.2 mm 3 m/s 760 mmHg 85%
    08:00 +12°C° 0.2 mm 4 m/s 760 mmHg 80%
    09:00 +13°C° 0.2 mm 4 m/s 760 mmHg 74%
    10:00 +13°C° 0.1 mm 4 m/s 760 mmHg 69%
    11:00 +14°C° 0.1 mm 5 m/s 760 mmHg 64%
    12:00 +14°C° 0.1 mm 5 m/s 760 mmHg 58%
    13:00 +14°C° 0 mm 6 m/s 759 mmHg 54%
    14:00 +14°C° 0 mm 6 m/s 759 mmHg 50%
    15:00 +15°C° 0 mm 7 m/s 759 mmHg 45%
    16:00 +13°C° 0.2 mm 6 m/s 760 mmHg 56%
    17:00 +10°C° 0.2 mm 6 m/s 760 mmHg 66%
    18:00 +8°C° 0.2 mm 6 m/s 761 mmHg 76%
    19:00 +8°C° 0.3 mm 6 m/s 762 mmHg 77%
    20:00 +8°C° 0.3 mm 5 m/s 762 mmHg 79%
    21:00 +7°C° 0.3 mm 4 m/s 763 mmHg 80%
    22:00 +7°C° 0 mm 4 m/s 763 mmHg 79%
    23:00 +7°C° 0 mm 3 m/s 763 mmHg 78%

    29 Setembro, Sábado

    Tempo Temperatura Precipitação Vento Pressão Humidade
    00:00 +7°C° 0 mm 3 m/s 763 mmHg 77%
    01:00 +7°C° 0 mm 3 m/s 763 mmHg 77%
    02:00 +5°C° 0 mm 3 m/s 763 mmHg 77%
    03:00 +5°C° 0 mm 3 m/s 763 mmHg 76%
    04:00 +7°C° 0 mm 3 m/s 763 mmHg 76%
    05:00 +7°C° 0 mm 3 m/s 764 mmHg 76%
    06:00 +7°C° 0 mm 2 m/s 764 mmHg 76%
    07:00 +9°C° 0 mm 3 m/s 765 mmHg 69%
    08:00 +11°C° 0 mm 3 m/s 765 mmHg 62%
    09:00 +12°C° 0 mm 3 m/s 766 mmHg 55%
    10:00 +13°C° 0 mm 3 m/s 766 mmHg 53%
    11:00 +13°C° 0 mm 3 m/s 765 mmHg 51%
    12:00 +14°C° 0 mm 3 m/s 765 mmHg 48%
    13:00 +14°C° 0 mm 3 m/s 765 mmHg 48%
    14:00 +14°C° 0 mm 3 m/s 765 mmHg 47%
    15:00 +14°C° 0 mm 3 m/s 765 mmHg 46%
    16:00 +12°C° 0 mm 3 m/s 765 mmHg 51%
    17:00 +11°C° 0 mm 3 m/s 765 mmHg 56%
    18:00 +9°C° 0 mm 2 m/s 766 mmHg 61%
    19:00 +9°C° 0 mm 2 m/s 766 mmHg 65%
    20:00 +8°C° 0 mm 2 m/s 767 mmHg 68%
    21:00 +9°C° 0 mm 1 m/s 767 mmHg 72%
    22:00 +8°C° 0 mm 1 m/s 767 mmHg 74%
    23:00 +8°C° 0 mm 1 m/s 767 mmHg 76%
    Mostrar mais